CW2857 Weather Reports


Display with metric or nautical units.
time (UTC)temp
F
wind
direction
speed
MPH
gust
MPH
rain 1hr
in
rain 24hr
in
rain mn
in
humidity
%
barometer
mb
20260901131532 65 327 0.0 6.0 0.00 0.00 0.00 28 1014.7
20260901131021 65 267 0.0 4.0 0.00 0.00 0.00 28 1014.6
20260901130525 66 271 1.0 4.0 0.00 0.00 0.00 27 1014.5
20260901130018 66 261 0.0 5.0 0.00 0.00 0.00 28 1014.6
20260901125517 66 281 1.0 5.0 0.00 0.00 0.00 28 1014.6
20260901125018 65 273 0.0 4.0 0.00 0.00 0.00 28 1014.5
20260901124518 65 268 1.0 6.0 0.00 0.00 0.00 28 1014.5
20260901124016 65 271 2.0 7.0 0.00 0.00 0.00 28 1014.4
20260901123516 65 275 1.0 5.0 0.00 0.00 0.00 28 1014.4
20260901123017 66 277 0.0 3.0 0.00 0.00 0.00 28 1014.4
20260901122515 66 262 0.0 6.0 0.00 0.00 0.00 27 1014.3
20260901122016 66 269 0.0 7.0 0.00 0.00 0.00 28 1014.3
20260901121517 66 329 1.0 8.0 0.00 0.00 0.00 27 1014.2
20260901121013 66 281 3.0 8.0 0.00 0.00 0.00 27 1014.2
20260901120513 66 255 0.0 7.0 0.00 0.00 0.00 27 1014.2
20260901120018 67 290 0.0 7.0 0.00 0.00 0.00 28 1014.2
20260901115512 67 294 2.0 8.0 0.00 0.00 0.00 28 1014.3
20260901115011 67 292 0.0 10.0 0.00 0.00 0.00 27 1014.2
20260901114511 67 260 4.0 10.0 0.00 0.00 0.00 27 1014.2
20260901114111 67 269 1.0 12.0 0.00 0.00 0.00 28 1014.3
20260901113512 67 309 3.0 12.0 0.00 0.00 0.00 27 1014.2
20260901113009 67 300 3.0 11.0 0.00 0.00 0.00 27 1014.2
20260901112508 67 266 5.0 10.0 0.00 0.00 0.00 27 1014.1
20260901112007 66 259 2.0 7.0 0.00 0.00 0.00 27 1014.1
20260901111507 66 259 1.0 5.0 0.00 0.00 0.00 27 1013.9
20260901111006 66 252 0.0 3.0 0.00 0.00 0.00 28 1013.9
20260901110510 67 273 0.0 5.0 0.00 0.00 0.00 28 1013.8
20260901110010 67 269 0.0 6.0 0.00 0.00 0.00 29 1013.8
20260901105506 67 274 2.0 7.0 0.00 0.00 0.00 29 1013.8
20260901105005 67 284 2.0 10.0 0.00 0.00 0.00 28 1013.9
20260901104505 67 296 3.0 10.0 0.00 0.00 0.00 29 1013.8
20260901104005 67 271 2.0 9.0 0.00 0.00 0.00 29 1013.8
20260901103504 67 268 3.0 10.0 0.00 0.00 0.00 29 1013.9
20260901103003 67 289 4.0 10.0 0.00 0.00 0.00 29 1013.9
20260901102507 67 296 4.0 10.0 0.00 0.00 0.00 28 1013.9
20260901102002 67 262 2.0 8.0 0.00 0.00 0.00 27 1013.9
20260901101504 67 271 2.0 8.0 0.00 0.00 0.00 27 1013.8
20260901101003 68 350 1.0 7.0 0.00 0.00 0.00 29 1013.8
20260901100501 68 274 2.0 8.0 0.00 0.00 0.00 29 1013.9
20260901100001 68 294 2.0 9.0 0.00 0.00 0.00 29 1013.8
20260901095502 68 258 2.0 10.0 0.00 0.00 0.00 30 1014.0
20260901095100 68 315 5.0 10.0 0.00 0.00 0.00 30 1014.0
20260901094600 68 221 3.0 9.0 0.00 0.00 0.00 30 1013.9
20260901094101 68 280 3.0 10.0 0.00 0.00 0.00 30 1013.9
20260901093658 68 260 4.0 10.0 0.00 0.00 0.00 30 1014.0
20260901093107 68 275 6.0 11.0 0.00 0.00 0.00 29 1013.9
20260901092557 68 264 5.0 10.0 0.00 0.00 0.00 28 1014.0
20260901092056 68 261 4.0 9.0 0.00 0.00 0.00 28 1014.0
20260901091558 68 279 4.0 8.0 0.00 0.00 0.00 27 1013.9
20260901091055 68 268 3.0 9.0 0.00 0.00 0.00 26 1013.9
20260901090554 69 277 3.0 9.0 0.00 0.00 0.00 26 1013.9
20260901090053 69 263 2.0 10.0 0.00 0.00 0.00 26 1013.9
20260901085552 69 280 4.0 10.0 0.00 0.00 0.00 25 1013.8
20260901085052 69 269 5.0 8.0 0.00 0.00 0.00 25 1013.8
20260901084553 69 279 5.0 8.0 0.00 0.00 0.00 25 1013.9
20260901084051 69 270 3.0 7.0 0.00 0.00 0.00 25 1014.0
20260901083550 69 272 1.0 7.0 0.00 0.00 0.00 25 1014.0
20260901083050 69 273 2.0 7.0 0.00 0.00 0.00 25 1013.9
20260901082549 69 281 4.0 9.0 0.00 0.00 0.00 25 1013.9
20260901082052 69 261 2.0 9.0 0.00 0.00 0.00 25 1013.9
20260901081557 69 327 1.0 7.0 0.00 0.00 0.00 25 1013.9
20260901081051 69 292 2.0 7.0 0.00 0.00 0.00 25 1013.8
20260901080549 69 285 1.0 5.0 0.00 0.00 0.00 25 1013.8
20260901080140 69 290 1.0 4.0 0.00 0.00 0.00 25 1013.9
20260901075550 69 294 0.0 4.0 0.00 0.00 0.00 25 1013.9
20260901075046 70 340 1.0 7.0 0.00 0.00 0.00 25 1013.8
20260901074545 70 340 1.0 9.0 0.00 0.00 0.00 24 1013.8
20260901074045 71 312 3.0 9.0 0.00 0.00 0.00 25 1013.8
20260901073544 71 267 1.0 13.0 0.00 0.00 0.00 25 1013.7
20260901073044 71 306 7.0 14.0 0.00 0.00 0.00 25 1013.7
20260901072544 72 273 6.0 14.0 0.00 0.00 0.00 24 1013.8
20260901072047 71 273 6.0 13.0 0.00 0.00 0.00 24 1014.0
20260901071542 72 272 3.0 12.0 0.00 0.00 0.00 24 1013.8
20260901071041 72 254 6.0 12.0 0.00 0.00 0.00 24 1013.8
20260901070539 72 263 7.0 11.0 0.00 0.00 0.00 24 1013.8
20260901070038 72 290 5.0 14.0 0.00 0.00 0.00 24 1013.8
20260901065539 72 265 5.0 16.0 0.00 0.00 0.00 24 1013.7
20260901065037 72 265 9.0 18.0 0.00 0.00 0.00 23 1013.7
20260901064537 72 271 9.0 16.0 0.00 0.00 0.00 24 1013.7
20260901064037 73 294 7.0 14.0 0.00 0.00 0.00 23 1013.6
20260901063538 73 287 6.0 12.0 0.00 0.00 0.00 23 1013.7
20260901063052 73 284 7.0 13.0 0.00 0.00 0.00 23 1013.7
20260901062536 72 284 6.0 11.0 0.00 0.00 0.00 23 1013.7
20260901062036 73 304 4.0 9.0 0.00 0.00 0.00 23 1013.7
20260901061543 73 266 2.0 9.0 0.00 0.00 0.00 23 1013.7
20260901061036 73 284 3.0 9.0 0.00 0.00 0.00 23 1013.8
20260901060538 73 282 2.0 11.0 0.00 0.00 0.00 23 1013.7
20260901060037 73 201 2.0 11.0 0.00 0.00 0.00 23 1013.9
20260901055536 73 257 5.0 10.0 0.00 0.00 0.00 23 1013.9
20260901055036 73 267 4.0 11.0 0.00 0.00 0.00 23 1013.9
20260901054541 73 229 6.0 14.0 0.00 0.00 0.00 23 1013.9
20260901054036 73 270 6.0 13.0 0.00 0.00 0.00 23 1013.9
20260901053535 74 236 5.0 14.0 0.00 0.00 0.00 23 1013.9
20260901053038 74 240 5.0 14.0 0.00 0.00 0.00 23 1013.9
20260901052533 74 250 3.0 12.0 0.00 0.00 0.00 23 1013.8
20260901052033 74 237 1.0 12.0 0.00 0.00 0.00 23 1013.8
20260901051533 74 304 1.0 10.0 0.00 0.00 0.00 22 1013.7
20260901051033 74 323 4.0 10.0 0.00 0.00 0.00 22 1013.7
20260901050534 74 340 3.0 9.0 0.00 0.00 0.00 22 1013.6
20260901050034 74 254 2.0 9.0 0.00 0.00 0.00 22 1013.7
20260901045537 75 267 1.0 10.0 0.00 0.00 0.00 22 1013.7
20260901045032 75 277 4.0 12.0 0.00 0.00 0.00 22 1013.6
20260901044534 75 360 2.0 9.0 0.00 0.00 0.00 22 1013.6
20260901044032 75 256 1.0 8.0 0.00 0.00 0.00 22 1013.6
20260901043533 75 287 3.0 17.0 0.00 0.00 0.00 22 1013.5
20260901043034 75 200 7.0 17.0 0.00 0.00 0.00 21 1013.4
20260901042532 75 257 7.0 14.0 0.00 0.00 0.00 21 1013.3
20260901042032 76 275 7.0 14.0 0.00 0.00 0.00 21 1013.3
20260901041535 76 215 7.0 16.0 0.00 0.00 0.00 21 1013.1
20260901041031 76 271 7.0 16.0 0.00 0.00 0.00 21 1013.1
20260901040531 76 262 8.0 20.0 0.00 0.00 0.00 21 1013.0
20260901040037 76 267 7.0 20.0 0.00 0.00 0.00 21 1013.0
20260901035630 76 271 9.0 16.0 0.00 0.00 0.00 21 1013.1
20260901035030 77 239 8.0 16.0 0.00 0.00 0.00 21 1013.0
20260901034530 77 229 5.0 16.0 0.00 0.00 0.00 21 1013.0
20260901034029 77 263 8.0 16.0 0.00 0.00 0.00 21 1012.8
20260901033529 77 251 8.0 16.0 0.00 0.00 0.00 21 1012.8
20260901033030 77 242 8.0 16.0 0.00 0.00 0.00 21 1012.8
20260901032530 77 284 6.0 12.0 0.00 0.00 0.00 21 1012.7
20260901032028 77 244 8.0 17.0 0.00 0.00 0.00 21 1012.7
20260901031529 77 292 10.0 18.0 0.00 0.00 0.00 21 1012.7
20260901031029 78 258 9.0 16.0 0.00 0.00 0.00 21 1012.7
20260901030528 78 222 8.0 18.0 0.00 0.00 0.00 20 1012.7
20260901030032 78 229 9.0 17.0 0.00 0.00 0.00 20 1012.7
20260901025528 78 264 5.0 16.0 0.00 0.00 0.00 20 1012.7
20260901025028 79 213 5.0 16.0 0.00 0.00 0.00 20 1012.8
20260901024532 79 276 6.0 16.0 0.00 0.00 0.00 20 1012.7
20260901024030 79 234 9.0 23.0 0.00 0.00 0.00 20 1012.6
20260901023526 80 281 11.0 21.0 0.00 0.00 0.00 19 1012.6
20260901023028 80 286 7.0 18.0 0.00 0.00 0.00 18 1012.6
20260901022528 81 248 6.0 14.0 0.00 0.00 0.00 17 1012.5
20260901022026 81 267 7.0 14.0 0.00 0.00 0.00 16 1012.4
20260901021529 81 262 8.0 19.0 0.00 0.00 0.00 16 1012.3
20260901021026 82 290 10.0 19.0 0.00 0.00 0.00 16 1012.3
20260901020526 82 275 9.0 18.0 0.00 0.00 0.00 16 1012.1
20260901020034 82 298 8.0 20.0 0.00 0.00 0.00 16 1012.1
20260901015526 83 279 10.0 20.0 0.00 0.00 0.00 16 1012.0
20260901015025 83 281 8.0 20.0 0.00 0.00 0.00 16 1012.0
20260901014525 84 278 9.0 18.0 0.00 0.00 0.00 15 1012.0
20260901014025 84 342 6.0 16.0 0.00 0.00 0.00 15 1011.9
20260901013525 84 272 9.0 19.0 0.00 0.00 0.00 15 1011.9
20260901013025 85 284 7.0 17.0 0.00 0.00 0.00 15 1011.8
20260901012528 85 285 9.0 17.0 0.00 0.00 0.00 14 1011.8
20260901012026 86 292 9.0 17.0 0.00 0.00 0.00 14 1011.8
20260901011528 86 332 7.0 18.0 0.00 0.00 0.00 14 1011.7
20260901011027 87 298 6.0 18.0 0.00 0.00 0.00 13 1011.7
20260901010525 88 313 5.0 12.0 0.00 0.00 0.00 12 1011.5
20260901010024 88 341 3.0 13.0 0.00 0.00 0.00 12 1011.6
20260901005524 87 192 6.0 13.0 0.00 0.00 0.00 12 1011.6
20260901005026 88 151 7.0 14.0 0.00 0.00 0.00 12 1011.5
20260901004522 88 184 7.0 15.0 0.00 0.00 0.00 12 1011.5
20260901004022 88 229 8.0 15.0 0.00 0.00 0.00 11 1011.6
20260901003521 88 229 7.0 11.0 0.00 0.00 0.00 11 1011.5
20260901003028 89 244 3.0 9.0 0.00 0.00 0.00 11 1011.6
20260901002521 89 236 3.0 18.0 0.00 0.00 0.00 11 1011.6
20260901002026 89 275 7.0 18.0 0.00 0.00 0.00 11 1011.7
20260901001525 89 226 6.0 15.0 0.00 0.00 0.00 11 1011.8
20260901001020 89 202 7.0 15.0 0.00 0.00 0.00 11 1011.8
20260901000520 89 188 4.0 10.0 0.00 0.00 0.00 11 1011.8
20260901000021 89 207 5.0 10.0 0.00 0.00 0.00 11 1011.8
20260831235518 90 235 5.0 12.0 0.00 0.00 0.00 11 1011.9
20260831235020 90 321 4.0 12.0 0.00 0.00 0.00 11 1012.0
20260831234517 90 301 3.0 13.0 0.00 0.00 0.00 11 1012.1
20260831234016 90 280 7.0 11.0 0.00 0.00 0.00 11 1012.1
20260831233516 90 237 3.0 7.0 0.00 0.00 0.00 10 1012.2
20260831233015 90 163 2.0 7.0 0.00 0.00 0.00 10 1012.1
20260831232515 90 223 2.0 9.0 0.00 0.00 0.00 11 1012.1
20260831232014 91 263 4.0 10.0 0.00 0.00 0.00 10 1012.1
20260831231523 94 202 4.0 10.0 0.00 0.00 0.00 10 1012.2
20260831231013 93 323 2.0 8.0 0.00 0.00 0.00 9 1012.3
20260831230517 92 40 3.0 5.0 0.00 0.00 0.00 10 1012.3
20260831230012 91 263 1.0 6.0 0.00 0.00 0.00 10 1012.4
20260831225511 91 105 2.0 9.0 0.00 0.00 0.00 10 1012.5
20260831225010 92 139 3.0 9.0 0.00 0.00 0.00 10 1012.7
20260831224528 91 5 2.0 10.0 0.00 0.00 0.00 10 1012.7
20260831224013 91 346 3.0 10.0 0.00 0.00 0.00 10 1012.8
20260831223509 90 5 4.0 11.0 0.00 0.00 0.00 10 1012.9
20260831223007 89 355 6.0 11.0 0.00 0.00 0.00 10 1013.0
20260831222507 89 286 4.0 14.0 0.00 0.00 0.00 10 1013.1
20260831222007 89 360 4.0 14.0 0.00 0.00 0.00 11 1013.1
20260831221506 91 258 7.0 12.0 0.00 0.00 0.00 10 1013.2
20260831221005 92 350 4.0 11.0 0.00 0.00 0.00 10 1013.2
20260831220505 91 360 3.0 10.0 0.00 0.00 0.00 10 1013.4
20260831220004 92 278 6.0 10.0 0.00 0.00 0.00 10 1013.5
20260831215504 93 284 2.0 9.0 0.00 0.00 0.00 10 1013.5
20260831215002 93 42 4.0 9.0 0.00 0.00 0.00 10 1013.6
20260831214501 93 347 4.0 9.0 0.00 0.00 0.00 10 1013.7
20260831214103 92 17 5.0 9.0 0.00 0.00 0.00 10 1013.7
20260831213559 93 73 3.0 7.0 0.00 0.00 0.00 10 1013.9
20260831213059 92 56 2.0 9.0 0.00 0.00 0.00 10 1014.0
20260831212600 91 355 1.0 9.0 0.00 0.00 0.00 10 1014.1
20260831212100 90 14 4.0 9.0 0.00 0.00 0.00 10 1014.2
20260831211608 91 262 3.0 8.0 0.00 0.00 0.00 10 1014.2
20260831211056 93 294 1.0 9.0 0.00 0.00 0.00 9 1014.3
20260831210555 93 55 3.0 9.0 0.00 0.00 0.00 10 1014.5
20260831210100 92 71 3.0 9.0 0.00 0.00 0.00 10 1014.5
20260831205554 92 67 3.0 12.0 0.00 0.00 0.00 10 1014.6
20260831205054 93 51 4.0 10.0 0.00 0.00 0.00 10 1014.6
20260831204552 93 345 3.0 7.0 0.00 0.00 0.00 10 1014.7
20260831204051 92 336 2.0 6.0 0.00 0.00 0.00 10 1014.7
20260831203549 91 325 2.0 9.0 0.00 0.00 0.00 10 1014.9
20260831203050 91 292 3.0 9.0 0.00 0.00 0.00 10 1014.9
20260831202547 91 32 2.0 9.0 0.00 0.00 0.00 10 1015.0
20260831202047 90 34 1.0 8.0 0.00 0.00 0.00 11 1015.2
20260831201546 88 355 3.0 6.0 0.00 0.00 0.00 11 1015.2
20260831201046 88 323 1.0 6.0 0.00 0.00 0.00 10 1015.4
20260831200545 89 46 2.0 9.0 0.00 0.00 0.00 10 1015.5
20260831200044 89 348 2.0 10.0 0.00 0.00 0.00 10 1015.6
20260831195546 90 42 2.0 10.0 0.00 0.00 0.00 10 1015.7
20260831195044 89 5 2.0 6.0 0.00 0.00 0.00 10 1015.7
20260831194554 89 69 2.0 10.0 0.00 0.00 0.00 10 1015.9
20260831194040 89 110 3.0 10.0 0.00 0.00 0.00 10 1016.0
20260831193543 90 68 2.0 6.0 0.00 0.00 0.00 10 1016.2
20260831193048 89 107 2.0 5.0 0.00 0.00 0.00 11 1016.2
20260831192536 88 139 2.0 5.0 0.00 0.00 0.00 11 1016.3
20260831192035 88 303 2.0 6.0 0.00 0.00 0.00 11 1016.4
20260831191545 86 11 1.0 6.0 0.00 0.00 0.00 12 1016.4
20260831191037 85 258 1.0 8.0 0.00 0.00 0.00 12 1016.5
20260831190533 87 46 2.0 8.0 0.00 0.00 0.00 12 1016.6
20260831190032 86 50 0.0 6.0 0.00 0.00 0.00 12 1016.6
20260831185531 86 155 1.0 6.0 0.00 0.00 0.00 12 1016.7
20260831185029 85 51 2.0 7.0 0.00 0.00 0.00 13 1016.8
20260831184528 85 135 1.0 8.0 0.00 0.00 0.00 13 1016.9
20260831184027 85 108 2.0 8.0 0.00 0.00 0.00 13 1017.0
20260831183527 84 247 2.0 5.0 0.00 0.00 0.00 13 1017.0
20260831183029 85 213 2.0 5.0 0.00 0.00 0.00 13 1017.2
20260831182525 85 27 0.0 7.0 0.00 0.00 0.00 13 1017.3
20260831182024 83 32 1.0 8.0 0.00 0.00 0.00 14 1017.3
20260831181524 83 69 4.0 8.0 0.00 0.00 0.00 14 1017.4
20260831181023 84 184 1.0 4.0 0.00 0.00 0.00 15 1017.4
20260831180526 84 69 2.0 5.0 0.00 0.00 0.00 15 1017.5
20260831180021 84 99 2.0 6.0 0.00 0.00 0.00 16 1017.5
20260831175521 83 5 1.0 4.0 0.00 0.00 0.00 16 1017.5
20260831175020 84 67 2.0 5.0 0.00 0.00 0.00 16 1017.6
20260831174519 83 348 2.0 5.0 0.00 0.00 0.00 17 1017.6
20260831174018 83 74 1.0 5.0 0.00 0.00 0.00 16 1017.6
20260831173518 82 288 2.0 5.0 0.00 0.00 0.00 16 1017.6
20260831173022 82 20 2.0 4.0 0.00 0.00 0.00 17 1017.6
20260831172515 81 346 2.0 4.0 0.00 0.00 0.00 18 1017.7
20260831172019 81 355 0.0 5.0 0.00 0.00 0.00 19 1017.7
20260831171515 80 360 3.0 5.0 0.00 0.00 0.00 19 1017.8
20260831171012 80 14 2.0 5.0 0.00 0.00 0.00 19 1017.8
20260831170511 79 63 2.0 5.0 0.00 0.00 0.00 20 1017.7
20260831170009 78 31 2.0 5.0 0.00 0.00 0.00 21 1017.7
20260831165508 77 24 1.0 6.0 0.00 0.00 0.00 21 1017.8
20260831165006 76 345 0.0 6.0 0.00 0.00 0.00 23 1017.7
20260831164506 76 350 3.0 6.0 0.00 0.00 0.00 22 1017.8
20260831164004 74 5 3.0 6.0 0.00 0.00 0.00 23 1017.8
20260831163504 73 259 1.0 7.0 0.00 0.00 0.00 24 1017.8
20260831163007 73 38 3.0 7.0 0.00 0.00 0.00 24 1017.8
20260831162504 72 271 1.0 8.0 0.00 0.00 0.00 25 1017.8
20260831162003 72 258 4.0 9.0 0.00 0.00 0.00 25 1017.8
20260831161503 72 238 4.0 9.0 0.00 0.00 0.00 25 1017.9
20260831161003 72 206 2.0 8.0 0.00 0.00 0.00 24 1017.9
20260831160505 73 17 0.0 3.0 0.00 0.00 0.00 25 1017.9
20260831160001 72 46 0.0 3.0 0.00 0.00 0.00 26 1018.1
20260831155602 71 47 1.0 3.0 0.00 0.00 0.00 26 1018.2
20260831155059 70 15 0.0 2.0 0.00 0.00 0.00 26 1018.2
20260831154619 70 44 0.0 2.0 0.00 0.00 0.00 27 1018.3
20260831154057 69 46 0.0 3.0 0.00 0.00 0.00 27 1018.3
20260831153556 68 33 1.0 4.0 0.00 0.00 0.00 27 1018.3
20260831153058 68 38 0.0 4.0 0.00 0.00 0.00 27 1018.3
20260831152558 67 49 0.0 2.0 0.00 0.00 0.00 27 1018.3
20260831152056 66 44 0.0 2.0 0.00 0.00 0.00 27 1018.4
20260831151610 66 44 0.0 2.0 0.00 0.00 0.00 28 1018.4
20260831151056 65 40 0.0 2.0 0.00 0.00 0.00 28 1018.4
20260831150556 64 40 0.0 2.0 0.00 0.00 0.00 28 1018.4
20260831150056 64 41 0.0 2.0 0.00 0.00 0.00 27 1018.4
20260831145555 63 55 0.0 2.0 0.00 0.00 0.00 27 1018.4
20260831145054 63 59 0.0 2.0 0.00 0.00 0.00 27 1018.4
20260831144554 62 51 0.0 2.0 0.00 0.00 0.00 27 1018.3
20260831144054 61 57 0.0 2.0 0.00 0.00 0.00 28 1018.2
20260831143554 61 37 1.0 2.0 0.00 0.00 0.00 29 1018.2
20260831143105 61 30 0.0 2.0 0.00 0.00 0.00 30 1018.2
20260831142554 61 46 0.0 2.0 0.00 0.00 0.00 30 1018.2
20260831142057 61 31 0.0 3.0 0.00 0.00 0.00 31 1018.2
20260831141553 62 355 0.0 4.0 0.00 0.00 0.00 30 1018.1
20260831141053 63 34 1.0 8.0 0.00 0.00 0.00 29 1018.1
20260831140552 65 64 1.0 9.0 0.00 0.00 0.00 28 1018.1
20260831140052 65 248 4.0 12.0 0.00 0.00 0.00 28 1017.9
20260831135552 65 259 4.0 12.0 0.00 0.00 0.00 28 1017.8
20260831135052 65 240 7.0 12.0 0.00 0.00 0.00 28 1017.8
20260831134558 64 238 5.0 12.0 0.00 0.00 0.00 28 1017.8
20260831134050 64 252 5.0 13.0 0.00 0.00 0.00 28 1017.8
20260831133550 64 236 6.0 13.0 0.00 0.00 0.00 28 1017.7
20260831133050 65 250 6.0 12.0 0.00 0.00 0.00 27 1017.6
20260831132552 65 262 5.0 11.0 0.00 0.00 0.00 27 1017.6
20260831132050 65 246 4.0 11.0 0.00 0.00 0.00 28 1017.6